Regional Weather Roundup
Issued by NWS

Home | Current Version | Previous Version | Graphics & Text | Print | Product List | Glossary On
Versions: 1 2 3 4 5 6 7 8 9 10 11 12 13 14 15 16 17 18 19 20 21 22 23 24 25 26 27 28 29 30 31 32 33 34 35 36 37 38 39 40 41 42 43 44 45 46 47 48 49 50
000
ASUS43 KMPX 282310
RWRMN
WEATHER ROUNDUP FOR MINNESOTA
NATIONAL WEATHER SERVICE TWIN CITIES/CHANHASSEN MN
500 PM CST SAT FEB 28 2015


NOTE: "FAIR" INDICATES FEW OR NO CLOUDS BELOW 12,000 FEET WITH NO
SIGNIFICANT WEATHER AND/OR OBSTRUCTIONS TO VISIBILITY. N/A MEANS
CURRENT SKY AND/OR WEATHER CONDITIONS ARE NOT AVAILABLE.

MNZ060>063-068>070-010000-
   Twin Cities Metro

CITY           SKY/WX    TMP DP  RH WIND       PRES   REMARKS
TWIN CITIES    MOCLDY    16   2  54 S15G24    30.38S WCI   1
ST PAUL        CLOUDY    16   3  56 S20       30.40F WCI  -1
CRYSTAL        PTCLDY    19   4  51 S16       30.34F WCI   4
BLAINE         MOCLDY    19   5  53 S16G23    30.35F WCI   5
LAKEVILLE      PTCLDY    12   3  67 S10G18    30.38S WCI  -1
EDEN PRAIRIE   PTCLDY    17   3  54 S18       30.35F WCI   1
SOUTH ST PAUL  CLOUDY    16   3  56 S13G21    30.39F WCI   2
LAKE ELMO      CLOUDY    18   5  57 S17G23    30.39S WCI   2
$$
MNZ001>005-007-008-013>017-022>024-027-028-010000-
   Northwest Minnesota

CITY           SKY/WX    TMP DP  RH WIND       PRES   REMARKS
BEMIDJI        MOCLDY    22   8  56 S13G21    30.13S WCI  10
HALLOCK        CLOUDY    21  18  86 S14       30.08S WCI   8
ROSEAU         LGT SNOW  21  18  86 S12       30.08S WCI   9
WARROAD        CLOUDY    21  16  79 S8G17     30.08F HAZE    WCI  12
THIEF RVR FALL CLOUDY    21  18  86 SW15      30.10S WCI   8
CROOKSTON      PTSUNNY   23  18  80 SW15G24   30.13S WCI  10
FOSSTON        LGT SNOW  19  16  86 S21       30.12S WCI   3
DETROIT LAKES  LGT SNOW  21  18  86 S15       30.15F WCI   8
MOORHEAD       LGT SNOW  25  19  80 S15G24    30.16S WCI  12
PARK RAPIDS    CLOUDY    20  11  68 S17G26    30.16S WCI   5
MAHNOMEN       LGT SNOW  20  16  83 S21       30.13S WCI   4
$$
MNZ006-009>011-018-025>026-010000-
   North Central Minnesota

CITY           SKY/WX    TMP DP  RH WIND       PRES   REMARKS
BAUDETTE       CLOUDY    23   9  55 S20G30    30.08F WCI   8
FLAG ISLAND    CLOUDY    21  12  68 S21       30.06F WCI   6
INTL FALLS     CLOUDY    22   0  38 SW9       30.13F WCI  12
WASKISH        MOCLDY    25   7  46 S9G17     30.13S WCI  15
BIG FORK       PTCLDY    21   3  45 S15       30.16S WCI   8
LONGVILLE      MOCLDY    21   3  45 S15       30.19S WCI   8
GRAND RAPIDS   MOCLDY    19   3  49 S12G22    30.18F WCI   7
CRANE LAKE     CLEAR     21  -4  33 S8G17     30.19F WCI  12
ORR            CLOUDY    21  -2  35 S10G20    30.15F WCI  10
COOK           PTCLDY    21   0  39 S12G20    30.18F WCI   9
WALKER         CLOUDY    21   5  50 S14G20    30.15F WCI   8
$$
MNZ012-019>021-037-010000-
   Northeast Minnesota

CITY           SKY/WX    TMP DP  RH WIND       PRES   REMARKS
DULUTH         MOCLDY    20   2  45 S14       30.23F WCI   7
ELY            PTCLDY    19  -2  38 S12G18    30.19F WCI   7
HIBBING        CLOUDY    21  -3  35 SW12      30.20F WCI   9
EVELETH        CLEAR     21   1  42 S12       30.21F WCI   9
DULUTH HARBOR  PTCLDY    23   3  42 S17       30.31F WCI   9
TWO HARBORS    CLEAR     23   5  46 SW17G23   30.25F WCI   9
SILVER BAY     CLEAR     21   3  45 S14G21    30.24F WCI   8
GRAND MARAIS     N/A     23   9  55 SW22      30.30F WCI   8
G MARAIS ARPRT CLEAR     16   3  57 S9G22     30.21F WCI   4
$$
MNZ029>031-032-039>041-046>048-054>057-064-010000-
   West Central Minnesota

CITY           SKY/WX    TMP DP  RH WIND       PRES   REMARKS
FERGUS FALLS   LGT SNOW  21  12  68 S18       30.22S WCI   6
WHEATON        MOSUNNY   21  14  73 S14G20    30.21S WCI   8
MORRIS         CLOUDY    21  12  68 S18       30.21S WCI   6
ALEXANDRIA     CLOUDY    20  11  68 S14       30.20F WCI   7
ELBOW LAKE     CLOUDY    21  13  72 S23       30.19S WCI   4
WADENA         CLOUDY    19  10  68 S15G22    30.19S WCI   5
APPLETON       CLOUDY    25  12  58 S10G18    30.24S WCI  15
BENSON         CLOUDY    23  12  63 SW14      30.24S WCI  11
ORTONVILLE     CLOUDY    25  12  58 S12       30.20F WCI  14
MADISON        PTSUNNY   25  16  68 S16       30.23F WCI  12
WILLMAR        FAIR      21  12  68 S5        30.28F WCI  15
$$
MNZ033>034-036-042>043-049>051-058-059-010000-
   Central Minnesota

CITY           SKY/WX    TMP DP  RH WIND       PRES   REMARKS
ST CLOUD       CLOUDY    19   5  54 S20       30.30S WCI   3
SAUK CENTRE    CLOUDY    19  10  68 S17       30.24F WCI   4
PAYNESVILLE    CLOUDY    17   8  69 SE12G18   30.28S WCI   4
AITKIN         MOCLDY    21   3  45 S16G23    30.22F WCI   7
PINE RIVER     MOCLDY    19   9  63 S15G23    30.23S WCI   5
BRAINERD       CLOUDY    19   6  57 S20       30.23F WCI   3
STAPLES        CLOUDY    19   9  63 S13       30.21F WCI   7
LONG PRAIRIE   CLOUDY    19  10  68 S16G25    30.23F WCI   5
LITTLE FALLS   MOCLDY    19  10  68 S14       30.26F WCI   6
LITCHFIELD     CLOUDY    19  12  73 S5        30.31S WCI  13
BUFFALO        MOCLDY    18   5  57 SE12G17   30.34S WCI   5
MAPLE LAKE     CLOUDY    20   8  59 S7        30.33R WCI  11
$$
MNZ037-044-045-052-053-010000-
   East Central Minnesota

CITY           SKY/WX    TMP DP  RH WIND       PRES   REMARKS
PRINCETON      PTCLDY    19   5  53 S14       30.30F WCI   6
MORA           PTCLDY    19   3  49 S13G21    30.31F WCI   7
CAMBRIDGE      PTCLDY    21   7  53 S10G21    30.31F WCI  10
RUSH CITY      CLOUDY    19   5  55 S13       30.33F WCI   6
MOOSE LAKE     CLOUDY    21   1  42 S13G20    30.26F WCI   9
HINCKLEY       MOCLDY    21   5  49 S17       30.30F WCI   7
CLOQUET        PTCLDY    19   0  42 S13G18    30.24F WCI   7
MCGREGOR       MOCLDY    21   5  49 S12G18    30.25F WCI   9
$$
MNZ071>073-080-081-089-090-097-098-010000-
   Southwest Minnesota

CITY           SKY/WX    TMP DP  RH WIND       PRES   REMARKS
MONTEVIDEO     CLOUDY    23  14  68 SW15      30.26F WCI  10
GRANITE FALLS  CLOUDY    22  14  71 S15       30.29F WCI   9
CANBY          PTSUNNY   24  15  70 S10G17    30.23F WCI  13
MARSHALL       PTSUNNY   21  12  68 S16G23    30.26F WCI   7
REDWOOD FALLS  CLOUDY    21  12  68 S21       30.30S WCI   5
OLIVIA         FLURRIES  19  12  73 S14G23    30.29F WCI   6
PIPESTONE      CLOUDY    21  16  79 S18       30.20S WCI   6
WINDOM         FLURRIES  19  12  73 S14G21    30.28F WCI   6
WORTHINGTON    PTSUNNY   28  10  47 S16       30.27F WCI  17
JACKSON        FLURRIES  21  12  68 S14       30.30S WCI   8
TRACY          FLURRIES  22  15  74 S12       30.26S WCI  10
SLAYTON        MOSUNNY   21  12  68 S17       30.24S WCI   7
$$
MNZ065>067-074>077-082>085-091>093-010000-
   South Central Minnesota

CITY           SKY/WX    TMP DP  RH WIND       PRES   REMARKS
MANKATO        CLEAR     18   1  49 S13G18    30.35F WCI   4
NEW ULM        CLOUDY    19  10  68 S15       30.32F WCI   5
ST JAMES       PTSUNNY   21  12  68 S14G20    30.33F WCI   8
FAIRMONT       CLOUDY    19  10  68 S14       30.31F WCI   6
GLENCOE        PTCLDY    20  10  66 S12       30.33R WCI   8
FARIBAULT      CLOUDY    16   5  62 SE15      30.38S WCI   1
OWATONNA       CLOUDY    14   3  62 SE14      30.37F WCI  -1
WASECA         PTCLDY    14   5  67 S12       30.38F WCI   0
ALBERT LEA     MOCLDY    12   3  67 S12       30.36F WCI  -2
$$
MNZ078>079-086>088-094>096-010000-
   Southeast Minnesota

CITY           SKY/WX    TMP DP  RH WIND       PRES   REMARKS
ROCHESTER      CLOUDY    11   1  64 S14       30.38F WCI  -5
RED WING       CLOUDY    16   1  53 S7        30.42F WCI   6
STANTON        PTCLDY    15   4  61 S14       30.38F WCI   1
DODGE CENTER   PTCLDY    12   3  67 S13       30.37F WCI  -3
WINONA         CLOUDY    19   0  42 SW8       30.46F WCI   9
AUSTIN         CLOUDY    10   1  67 SE8       30.38F WCI  -1
PRESTON        CLOUDY    11   1  62 S10       30.41F WCI  -2
$$
ABBREVIATIONS USED IN REMARKS
   TC - TEMPERATURES IN CELSIUS
  WCI - WIND CHILL INDEX
   HX - HEAT INDEX
  VSB - VISIBILITY
$$


USA.gov is the U.S. government's official web portal to all federal, state and local government web resources and services.